This is the latest recevied weather packets stored in our database for station/object KK7PZE-13. If no packets are shown the sender has not sent any weather packets the latest 10 day(s).
| Time | Temp. | Humidity | Pressure | Rain* | Wind** | Luminosity | Snow |
|---|---|---|---|---|---|---|---|
| 1777551359 | 15° C | 23% | 1010.1 hPa | 0 mm | - | - | - |
| 1777550759 | 15° C | 23% | 1010.1 hPa | 0 mm | - | - | - |
| 1777550159 | 14.44° C | 24% | 1010.2 hPa | 0 mm | - | - | - |
| 1777549559 | 15° C | 23% | 1010.1 hPa | 0 mm | - | - | - |
| 1777548959 | 15° C | 23% | 1010.2 hPa | 0 mm | - | - | - |
| 1777547760 | 16.11° C | 22% | 1010.6 hPa | 0 mm | - | - | - |
| 1777547159 | 16.11° C | 22% | 1010.4 hPa | 0 mm | - | - | - |
| 1777546560 | 16.11° C | 22% | 1010.6 hPa | 0 mm | - | - | - |
| 1777545959 | 15.56° C | 22% | 1010.6 hPa | 0 mm | - | - | - |
| 1777545359 | 15° C | 23% | 1010.7 hPa | 0 mm | - | - | - |
| 1777544159 | 16.67° C | 21% | 1010.6 hPa | 0 mm | - | - | - |
| 1777543559 | 16.67° C | 22% | 1010.8 hPa | 0 mm | - | - | - |
| 1777542960 | 16.67° C | 21% | 1010.9 hPa | 0 mm | - | - | - |
| 1777542359 | 16.67° C | 20% | 1010.7 hPa | 0 mm | - | - | - |
| 1777541761 | 16.67° C | 21% | 1010.9 hPa | 0 mm | - | - | - |
| 1777541159 | 16.67° C | 21% | 1011.5 hPa | 0 mm | - | - | - |
| 1777540559 | 17.22° C | 20% | 1011.4 hPa | 0 mm | - | - | - |
| 1777539959 | 17.78° C | 20% | 1011.2 hPa | 0 mm | - | - | - |
| 1777538803 | 17.22° C | 20% | 1011.4 hPa | 0 mm | - | - | - |
| 1777538759 | 17.22° C | 20% | 1011.4 hPa | 0 mm | - | - | - |
| 1777538159 | 18.33° C | 19% | 1011.6 hPa | 0 mm | - | - | - |
| 1777537559 | 18.89° C | 18% | 1011.7 hPa | 0 mm | - | - | - |
| 1777536960 | 18.89° C | 18% | 1011.7 hPa | 0 mm | - | - | - |
| 1777535759 | 18.33° C | 19% | 1011.5 hPa | 0 mm | - | - | - |
| 1777535159 | 18.89° C | 18% | 1011.9 hPa | 0 mm | - | - | - |
* Rain latest hour (hover to see other rain measurements)
** Current wind speed in m/s (hover to see current wind gust speed)